Погода Мыс Шведский

Погода Мыс Шведский : погода сейчас, прогноз погоды и архив. Всё, что Вы хотите узнать о погоде Мыс Шведский!

Хотите узнать прогноз погоды Мыс Шведский? Тогда Вам сюда: Погода Мыс Шведский

Поиск расширенной информации на нашем сайте:

Другие новости

Новости СМИ2

Главная страница сайта

Новости сайта

03.07.2017

Напоминаем, что на нашем специализированном сайте Метеоцентр.Азия вы можете получить высокодетализированные автоматические прогнозы погоды по пунктам России, СНГ и мира в авиационном формате (включающие направление и скорость ветра, видимость, явления погоды, количество и форму облачности, нижнюю и верхнюю границу облачности).

Рекомендуем: Радуга бисера кроше наборы для вышивания бисером иконы.

Погода Мыс Шведский - сегодня

Время (UTC), дата Ветер
(°,м/с) 
Видим.   Явления Облачность Т
(°С)
Тd
(°С)
f(%) Тe
(°С)
Pmin
(гПа)
dP
(гПа)
Po
(мм)
O2
(г/м3)
Тmin Tmax R s Состояние
почвы
00 14.02.18 280 (З) 4000 м  слаб. ливневой снег  9/9 300 м кучево-дожд. 
[Cb cap]
-5 -6 93 -9  1020.9  0.6  765  315           
15 14.02.18 270 (З) 7{11}  4000 м  слаб. ливневой снег  10/10 300 м кучево-дожд. 
[Cb cap]
-4.8 -5.8 93 -10  1024.5  0.7  768  316    -4.3  0.7     
18 14.02.18 220 (ЮЗ) 4000 м  слаб. ливневой снег  10/10 300 м кучево-дожд. 
[Cb cap]
-5 -6 93 -10  1024.8  0.3  768  316           
21 14.02.18 260 (З) 4000 м  слаб. ливневой снег  10/10 300 м кучево-дожд. 
[Cb cap]
-3.6 -4.4 94 -9  1024.6  -0.2  768  314           
15 15.02.18 220 (ЮЗ) 10-12{12}  2000 м  метель  10/10 300 м 
[Sc]
-7.5 -8.5 93 -14  1023.4  -0.7  767  319    -5.3  0.3     
03 16.02.18 220 (ЮЗ) 10-13{13}  0200 м  слаб. ливневой снег  10/10 300 м кучево-дожд. 
[Cb cap]
-6.9 -7.8 93 -13  1019  -1.6  764  316  -7.6       
15 16.02.18 230 (ЮЗ) 14-16{17}  0200 м  слаб. ливневой снег  10/10 300 м кучево-дожд. 
[Cb cap]
-6.8 -7.7 93 -15  1016.1  -0.7  761  315    -4.9  0.8     
03 17.02.18 240 (ЮЗ) 11-13{17}  0200 м  сильная метель{ливн. осадки}  10/10 300 м 
[Sc]
-4.9 -5.9 93 -11  1012.5  -0.6  759  312  -7       
15 17.02.18 280 (З) 10-12{16}  2000 м  метель  10/10 300 м 
[Sc]
-3.3 -4.4 92 -9  1011  0.3  758  310    -3.3       
09 18.02.18 020 (С) 10 км    6/6 600 м 
[Sc]
-7.4 -9.5 85 -12  1017.9  1.5  763  317           
12 18.02.18 050 (СВ) 10 км    8/8 600 м 
[Sc]
-9.6 -11.7 85 -15  1019.8  1.9  764  320           
18 18.02.18 130 (ЮВ) 20000 м    3/3 600 м 
[Sc]
-18.6 -19.8 90 -23  1022.8  1.2  766  333           
03 19.02.18 210 (ЮЗ) 20000 м    ясно 
-25.7 -28.1 80 -31  1025.9  0.5  769  344  -25.7         
06 19.02.18 210 (ЮЗ) 20000 м    4/0 верхняя 
[Cs]
-25.2 -27.7 80 -30  1027  1.1  770  343  -25.8         
09 19.02.18 210 (ЮЗ) 20000 м    3/0 верхняя 
[Cs]
-25 -27.4 80 -31  1028  770  344           
12 19.02.18 200 (Ю) 20000 м    4/0 верхняя 
[Cs]
-24.8 -27.3 80 -30  1028.7  0.6  771  343           
18 19.02.18 210 (ЮЗ) 20000 м    3/0 верхняя 
[Cs]
-23.8 -26.3 80 -30  1028.7  -0.2  771  342           
06 20.02.18 190 (Ю) 4000 м  слаб. ливневой снег  8/8 300 м кучево-дожд. 
[Cb cap]
-19.1 -21 85 -23  1025.5  -0.8  768  335           
18 20.02.18 150 (ЮВ) 10 км    3/0 верхняя 
[Cs]
-23.9 -26.4 80 -30  1025.6  0.4  769  341           
03 21.02.18 090 (В) 20000 м    ясно 
-25.7 -28.1 80 -33  1026.4  769  344  -26         
06 21.02.18 090 (В) 20000 м    ясно 
-26.3 -29 78 -33  1026.5  0.1  769  345  -26.7         
09 21.02.18 090 (В) 20000 м    ясно 
-25 -27.4 80 -33  1026.1  -0.3  769  343           
12 21.02.18 090 (В) 20000 м  позёмок  ясно 
-24.8 -27.3 80 -34  1026.1  769  343           
18 21.02.18 080 (В) 20000 м  позёмок  3/0 верхняя 
[Cs]
-25 -27.4 80 -35  1026.1  -0.1  769  343           
03 22.02.18 090 (В) 9-10{11}  10 км  позёмок  3/0 верхняя 
[Cs]
-24.4 -26.9 80 -35  1027.3  0.2  770  342  -25.6         
Время (UTC), дата Ветер
(°,м/с) 
Видим.   Явления Облачность Т
(°С)
Тd
(°С)
f(%) Тe
(°С)
Pmin
(гПа)
dP
(гПа)
Po
(мм)
O2
(г/м3)
Тmin Tmax R s Состояние
почвы

Для получения пояснительной информации подведите курсор к названию столбца.

ПОГОДА Мыс Шведский - архив

Всё, что Вы хотите узнать о погоде Мыс Шведский - удобно и подробно!

Выберите нужную дату (начиная с 1 января 2015* года) и нажмите кнопку "Найти".
Будут отображены архивные сводки погоды по пункту Мыс Шведский, начиная с указанной даты.


Отображать данные в формате CSV (для использования в таблицах Excel)


Внимание! Наш архив погоды предназначен исключительно для личного некоммерческого использования в познавательных целях. Если Вам необходимы официальные справки о состоянии погоды (для производственных, юридических, коммерческих и т.п. целей), обращайтесь в органы Росгидромета.

*Примечание: данная дата относится к архиву по метеостанциям СССР (Россия, СНГ, Балтия).
Архив по метеостанциям Зарубежной Европы и Азии (кроме Китая) хранится 10 дней, по другим регионам земного шара (Китай, Африка, Америка, Австралия, Океания) - 1 день.

Мыс Шведский - район местоположения метеостанции


Название, широта, долгота, высота метеостанции:
Мыс Шведский 68.6°ш. 56.6°д. 4 м над ур. моря [Российская Федерация]

Дополнительная информация

В oтличие oт бoльшинства пoгoдных сайтoв мы публикуем пoдрoбную метеoинфoрмацию в детальнoм прoфессиoнальнoм фoрмате.

Характеристики температуры и влажнoсти вoздуха измеряются на высoте 2 м в тени вдали oт зданий и деревьев.
Скoрoсть ветра измеряется на высoте 10 м (на урoвне рoста челoвека скoрoсть ветра ниже в 1.5-2 раза). Если метеoстанция нахoдится в гoрoде или в лесу, тo скoрoсть ветра занижена на 2-4 м/с пo сравнению с oткрытым местoм. Скoрoсть ветра над акватoриями крупных рек и oзёр, а также на вершинах хoлмoв на 2-5 м/с выше, чем в oбычных услoвиях.
Атмoсфернoе давление в разных тoчках местнoсти мoжет значительнo oтличаться oт давления на метеoстанции, в зависимoсти oт услoвий рельефа (при пoдъёме на 10 м давление пoнижается примернo на 1 мм рт.ст.).